Regional Weather Roundup
Issued by NWS

Home | Current Version | Previous Version | Graphics & Text | Print | Product List | Glossary On
Versions: 1 2 3 4 5 6 7 8 9 10 11 12 13 14 15 16 17 18 19 20 21 22 23 24 25 26 27 28 29 30 31 32 33 34 35 36 37 38 39 40 41 42 43 44 45 46 47 48 49 50
000
ASUS43 KLMK 302102
RWRKY
KENTUCKY REGIONAL WEATHER ROUNDUP
NATIONAL WEATHER SERVICE LOUISVILLE KY
500 PM EDT THU OCT 30 2014

NOTE "FAIR" INDICATES FEW OR NO CLOUDS BELOW 12,000 FEET
WITH NO SIGNIFICANT WEATHER AND/OR OBSTRUCTIONS TO VISIBILITY.

KYZ001>023-026-027-061>063-070>075-302200-
WESTERN AND SOUTH CENTRAL KENTUCKY

CITY           SKY/WX    TMP DP  RH WIND       PRES   REMARKS
PADUCAH        SUNNY     63  38  39 SW6       30.04F
HENDERSON      CLOUDY    61  37  41 W3        30.04F
OWENSBORO      SUNNY     59  38  45 CALM      30.06F
HOPKINSVILLE   SUNNY     60  38  43 W5        30.05F
BOWLING GREEN  MOSUNNY   61  37  41 CALM      30.06F
GLASGOW        SUNNY     59  36  42 CALM      30.05F
$$

KYZ024-025-028>034-038-045-046-053-302200-
NORTH CENTRAL KENTUCKY

CITY           SKY/WX    TMP DP  RH WIND       PRES   REMARKS
LOUISVILLE/SDF MOSUNNY   57  35  43 CALM      30.06F
LOUISVILLE/LOU MOSUNNY   57  35  43 CALM      30.07F
FORT KNOX      MOSUNNY   56  36  46 E2        30.05F
$$

KYZ035>037-039>044-047>052-055>060-089>105-302200-
NORTHEAST KENTUCKY

CITY           SKY/WX    TMP DP  RH WIND       PRES   REMARKS
LEXINGTON      SUNNY     55  36  48 NE5       30.06F
COVINGTON      MOSUNNY   54  33  45 CALM      30.06F
FRANKFORT      SUNNY     54  35  48 W3        30.05F
$$

KYZ054-064>069-076>088-106>120-302200-
SOUTHEAST KENTUCKY

CITY           SKY/WX    TMP DP  RH WIND       PRES   REMARKS
JACKSON        SUNNY     54  34  46 CALM      30.05F
LONDON         SUNNY     58  36  43 N5        30.05S
SOMERSET       SUNNY     55  36  47 CALM      30.06F
MIDDLESBORO    SUNNY     59  38  47 N5        30.02F
MONTICELLO     CLEAR     59  38  45 CALM      30.07F
$$




USA.gov is the U.S. government's official web portal to all federal, state and local government web resources and services.